Home > Weather > Oxnard > Past weeks

Flag for USA Past Weather in Oxnard, California, USA — Yesterday and Last 2 Weeks

Now
68 °F

Low clouds.


Feels Like: 68 °F
Forecast: 65 / 75 °F
Wind: 15 mph from West

Location: Oxnard Airport

Current Time: Jul 25, 2016 at 7:47:26 PM

Latest Report: Jul 25, 2016 at 6:51 PM


Visibility: 7 mi

Pressure: 29.87 "Hg

Humidity: 87%

Dew Point: 64 °F

Location of OxnardLocation

Past Weather in Oxnard — Graph

°F

Oxnard Temperature Yesterday

Maximum temperature yesterday: 76 °F (at 1:51 PM)
Minimum temperature yesterday: 66 °F (at 10:51 PM)
Average temperature yesterday: 71 °F

High & Low Weather Summary for the Past Weeks

 TemperatureHumidityPressure
High81 °F (Jul 23, 2:51 PM)100% (Jul 24, 2:51 AM)30.04 "Hg (Jul 24, 2:51 AM)
Low59 °F (Jul 11, 5:51 AM)49% (Jul 23, 2:51 PM)29.78 "Hg (Jul 23, 5:51 PM)
Average68 °F78%29.92 "Hg
* Reported Jul 10 5:51 PM — Jul 25 5:51 PM, Oxnard, Weather by CustomWeather, © 2016

Note: Actual official high and low records may vary slightly from our data, if they occured in-between our weather recording intervals... More about our weather records

Advertising

Oxnard Weather History for the Previous 24 Hours

Scroll right to see more
 ConditionsComfort  
Time TempWeatherWind HumidityBarometerVisibility
5:51 PM
Mon, Jul 25
73 °FPassing clouds.17 mph76%29.87 "Hg10 mi
4:51 PM75 °FSunny.16 mph74%29.87 "Hg9 mi
3:51 PM78 °FSunny.13 mph64%29.89 "Hg9 mi
2:51 PM77 °FSunny.12 mph69%29.91 "Hg9 mi
1:51 PM77 °FSunny.10 mph69%29.94 "Hg9 mi
12:51 PM76 °FSunny.9 mph72%29.96 "Hg8 mi
11:51 AM76 °FSunny.8 mph72%29.96 "Hg8 mi
10:51 AM77 °FSunny.8 mph69%29.97 "Hg8 mi
9:51 AM74 °FSunny.No wind74%29.97 "Hg9 mi
8:51 AM70 °FPartly sunny.3 mph79%29.97 "Hg9 mi
7:51 AM67 °FFog.3 mph90%29.96 "Hg6 mi
6:51 AM66 °FFog.3 mph93%29.94 "Hg5 mi
5:51 AM67 °FLow clouds.3 mph90%29.93 "Hg8 mi
4:51 AM66 °FLow clouds.No wind93%29.92 "Hg9 mi
3:51 AM65 °FFog.No wind100%29.92 "Hg5 mi
2:51 AM65 °FFog.3 mph100%29.91 "Hg1 mi
1:58 AM65 °FFog.3 mph97%29.92 "Hg3 mi
12:59 AM65 °FFog.3 mph97%29.92 "Hg2 mi
12:51 AM65 °FFog.5 mph97%29.91 "Hg2 mi
11:51 PM
Sun, Jul 24
66 °FFog.6 mph96%29.91 "Hg2 mi
10:51 PM66 °FFog.7 mph96%29.91 "Hg1 mi
10:04 PM67 °FFog.9 mph97%29.91 "Hg2 mi
8:51 PM69 °FFog.7 mph90%29.89 "Hg5 mi
7:51 PM72 °FPassing clouds.5 mph81%29.87 "Hg7 mi
Weather by CustomWeather, © 2016

See weather overviewHow to use our weather pages